sat.trackr.live / text

‹ back to catalog

STARLINK-36154

NORAD 66939 · 2025-286Q

PAYLOAD ACTIVE UNKNOWN

§ Identity

Operator
Country
US
Launch date
2025-12-07
Launch site
AFWTR
Launch vehicle
Mass (kg)
RCS (m²)

Purposes: comms

External: N2YO · Heavens-Above · Gunter

§ Orbital elements

Epoch: 2026-05-25T01:02:22.003008Z

Period
93.85 min
Inclination
53.1584°
Eccentricity
0.0000588
Mean motion
15.34433419 rev/d
Perigee alt
462.2 km
Apogee alt
463.0 km
Semi-major
6,840.7 km
B*
5.8707e-4
RAAN
3.3165°
Arg perigee
301.2301°
Mean anomaly
58.8644°
Rev number
2,711

§ Raw data

STARLINK-361541 66939U 25286Q   26145.04331022  .00019532  00000+0  58707-3 0  99982 66939  53.1584   3.3165 0000588 301.2301  58.8644 15.34433419 27113

JSON: /api/v1/satellites/66939 · /tle

For live sub-satellite position, see the globe view (requires WebGL).

§ Visibility from observer

Set your observer location to see the next 7 days of passes ≥ 10°. The values pass through the URL so the page stays shareable.

No JS? Fill the form by hand. The geolocation button needs JavaScript.